カタログに戻る

CZ-6A DEB

運用中PO
NORAD 60620·DEBRIS·🇨🇳 China

打ち上げ Aug 6, 2024 から Taiyuan Satellite Launch Center

Loading…

次のパス (今後24時間)

TLE

最新Source: Space-Track

元期: Sep 14, 2026, 10:59 UTC

1 60620U 24140V   26257.45772623  .00000306  00000-0  64992-4 0  9996
2 60620  89.0188 261.9848 0110834 318.4577  40.8246 14.52758812111460

AllMySatでCZ-6A DEBをリアルタイム追跡

Download on the App Store